Weather History for Redmond, OR

Change the Weather History Date:

Monday, April 1, 2013

  Actual Average Record
Temperature  
Mean Temperature 49 °F 42 °F  
Max Temperature 66 °F 57 °F 79 °F (2000)
Min Temperature 31 °F 28 °F 10 °F (2008)
Degree Days  
Heating Degree Days 16 23  
Month to date heating degree days 16 23  
Since 1 July heating degree days 5241 5474  
Cooling Degree Days 0 0  
Month to date cooling degree days 0 0  
Year to date cooling degree days 0 0  
Moisture  
Dew Point 38 °F    
Average Humidity 69    
Maximum Humidity 100    
Minimum Humidity 37    
Precipitation  
Precipitation 0.00 in 0.02 in 0.29 in (2014)
Month to date precipitation 0.00 0.02  
Year to date precipitation 0.75 2.30  
Sea Level Pressure  
Sea Level Pressure 30.03 in    
Wind  
Wind Speed 7 mph (NW)    
Max Wind Speed 23 mph    
Max Gust Speed 29 mph    
Visibility 10 miles    
Events      
T = Trace of Precipitation, MM = Missing Value Source: NWS Daily Summary

Daily Weather History Graph

Daily Weather History Graph

Search for Another Location

Airport:

Trip Planner

Search our weather history database for the weather conditions in past years. The results will help you decide how hot, cold, wet, or windy it might be!

Date:

Astronomy

Apr. 01, 2013 Rise Set
Actual Time 6:45 AM PDT 7:32 PM PDT
Civil Twilight 6:15 AM PDT 8:01 PM PDT
Nautical Twilight 5:41 AM PDT 8:36 PM PDT
Astronomical Twilight 5:04 AM PDT 9:12 PM PDT
Moon 12:55 AM PDT (4/1) 10:27 AM PDT (4/1)
Length of Visible Light 13h 45m
Length of Day
12h 47m
Waning Gibbous, 66% of the Moon is Illuminated
Apr 1
Waning Gibbous
Apr 2
Last Quarter
Apr 10
New
Apr 18
First Quarter
Apr 25
Full

Hourly Weather History & Observations

Time (PDT) Temp. Windchill Dew Point Humidity Pressure Visibility Wind Dir Wind Speed Gust Speed Precip Events Conditions
1:56 AM 44.1 °F 40.1 °F 36.0 °F 73% 29.95 in 10.0 mi WNW 6.9 mph - N/A   Clear
2:56 AM 45.0 °F 41.2 °F 39.9 °F 82% 29.94 in 10.0 mi NW 6.9 mph - N/A   Clear
3:56 AM 41.0 °F - 39.0 °F 93% 29.94 in 10.0 mi Calm Calm - N/A   Clear
4:56 AM 34.0 °F - 33.1 °F 96% 29.96 in 10.0 mi Calm Calm - N/A   Clear
5:56 AM 33.1 °F 28.7 °F 32.0 °F 96% 29.98 in 10.0 mi South 4.6 mph - N/A   Clear
6:56 AM 34.0 °F - 33.1 °F 96% 30.00 in 8.0 mi Calm Calm - N/A   Clear
7:56 AM 37.9 °F 35.5 °F 36.0 °F 93% 30.01 in 9.0 mi South 3.5 mph - N/A   Scattered Clouds
8:56 AM 45.0 °F - 41.0 °F 86% 30.03 in 10.0 mi Calm Calm - N/A   Scattered Clouds
10:56 AM 57.9 °F - 42.1 °F 56% 30.02 in 10.0 mi NW 8.1 mph - N/A   Partly Cloudy
11:56 AM 59.0 °F - 41.0 °F 51% 30.03 in 10.0 mi NNW 5.8 mph - N/A   Scattered Clouds
1:56 PM 64.0 °F - 37.9 °F 38% 30.01 in 10.0 mi North 8.1 mph 16.1 mph N/A   Scattered Clouds
2:56 PM 62.1 °F - 39.0 °F 43% 30.00 in 10.0 mi WNW 12.7 mph - N/A   Mostly Cloudy
3:56 PM 63.0 °F - 39.0 °F 41% 30.01 in 10.0 mi NW 15.0 mph 19.6 mph N/A   Overcast
4:56 PM 63.0 °F - 39.0 °F 41% 30.03 in 10.0 mi WNW 16.1 mph - N/A   Mostly Cloudy
5:56 PM 60.1 °F - 39.0 °F 46% 30.05 in 10.0 mi WNW 18.4 mph - N/A   Partly Cloudy
6:56 PM 55.0 °F - 39.0 °F 55% 30.08 in 10.0 mi WNW 15.0 mph - N/A   Clear
7:56 PM 51.1 °F - 39.0 °F 63% 30.09 in 10.0 mi WNW 15.0 mph 20.7 mph N/A   Clear
8:56 PM 48.9 °F - 39.0 °F 69% 30.12 in 10.0 mi NNW 9.2 mph - N/A   Clear
9:56 PM 48.0 °F - 39.0 °F 71% 30.11 in 10.0 mi NW 5.8 mph - N/A   Clear
10:56 PM 46.9 °F - 39.0 °F 74% 30.11 in 10.0 mi Calm Calm - N/A   Clear
11:56 PM 39.0 °F - 35.1 °F 86% 30.12 in 10.0 mi Calm Calm - N/A   Clear